Volver al catálogo

FENGYUN 1C DEB

ActivoPO
NORAD 30516·DEBRIS·🇨🇳 China

Lanzado May 10, 1999 desde Taiyuan Satellite Launch Center

Loading…

Próximos Pases (próximas 24 horas)

TLE

ActualizadoSource: Space-Track

Época: Sep 14, 2026, 14:22 UTC

1 30516U 99025AJE 26257.59903873  .00004173  00000-0  12108-2 0  9995
2 30516  98.8656  17.6213 0009824 187.2275 295.2316 14.44903642 16949

Sigue FENGYUN 1C DEB en tiempo real con AllMySat

Download on the App Store